KLCK Airport (Rickenbacker Intl) Information

FAA: LCK - ICAO: KLCK

KLCK Airport Location

State Ohio
County Franklin
City Columbus
KLCK Airport is 10 miles south of Columbus, OH.
Latitude 39-48-49.6000N
Longitude 082-55-40.1000W
Elevation 743ft

KLCK Airport METARs

METAR KLCK 251655Z AUTO 18013G16KT 10SM SCT019 SCT024 18/13 A2970 RMK AO2 T01760133
Altimeter 29.70"
Temperature 17.6°C (63.7°F)
Wind 180° at 13KT with gusts to 16KT
Clouds scattered at 1,900ft scattered at 2,400ft
Visibility 10.0mi
Time observed: 2021-10-25T16:55:00Z

KLCK Airport Details

Status Operational
Activation July 1943
Ownership Public
Usage Public
Chart CINCINNATI
ATC on-site Yes
Beacon schedule sunset-sunrise
Beacon color clear green

KLCK Airport Contacts

Owner COLUMBUS RGNL AIRPORT AUTHORITY
Owner address 4600 INTERNATIONAL GATEWAY, COLUMBUS, OH 43219
Owner phone 614-239-4000
Manager JOHN LONTOR
Manager address 18000 STATION RD, COLUMBIA STATION, OH 44028
Manager phone N/A

KLCK Airport (Rickenbacker Intl) Radio Frequencies

KLCK (Airport) Radio Frequencies

UNICOM 122.95
Common traffic advisory frequency (CTAF) N/A